Tracking 29892 objects as of 21-Nov-2024
HD Live streaming from Space Station
objects crossing your sky now

YUNHAI 1-02

Track YUNHAI 1-02 now!
10-day predictions


NORAD ID: 44547
Int'l Code: 2019-063A
Perigee: 782.1 km
Apogee: 793.8 km
Inclination: 98.4 °
Period: 100.5 minutes
Semi major axis: 7158 km
RCS: Unknown
Launch date: September 25, 2019
Source: People's Republic of China (PRC)
Launch site: Jiuquan Satellite Launch Center, China (JSC)
Your satellite tracking list
Your tracking list is empty




NASA's NSSDC Master Catalog

Two Line Element Set (TLE):
1 44547U 19063A   24326.16812011  .00000482  00000-0  19045-3 0  9996
2 44547  98.4357 341.4837 0008192  81.6364 278.5749 14.33282723269813
Source of the keplerian elements: AFSPC